カタログに戻る

STARLINK-36656

運用中通信VLEO
NORAD 67841·PAYLOAD·🇺🇸 United States

打ち上げ Feb 16, 2026 から Vandenberg Space Force Base

Loading…

次のパス (今後24時間)

TLE

最新Source: CelesTrak SupGP

元期: Sep 14, 2026, 21:34 UTC

1 67841C 26033W   26257.89909722  .00019335  00000+0  70089-3 0  2572
2 67841  43.0025 278.4391 0001452 265.1988  29.0491 15.27541681    13

AllMySatでSTARLINK-36656をリアルタイム追跡

Download on the App Store